DW9919 Gulf Shores AL US current weather conditions

sailwx.info

Wind from 033

Air temperature 22.8° C
Dewpoint 22.1° C

Last reported at 2019-Oct-15 05:00 UTC.
Time now 2019-Oct-15 06:14 UTC

Location: N 30°17' W 087°31'.
View on Google Maps.

See reports from other nearby stations

  
Tides and Currents Weather Stations Pressure Air Temp Water Temp Dewpoint Dewpoint Depression Visibility Wind Speed Wind Dir Waves Ship Positions
date/time (UTC)wind fromknots sea level pressurealtimeterstation pressurevisibilityair tempwater tempwave heightnotes
2019-Oct-15 05:00 033 22.8
2019-Oct-15 04:45 103 0 gusting 4 22.8
2019-Oct-15 04:30 079 0 gusting 4 22.8
2019-Oct-15 04:15 101 0 gusting 4 22.8
2019-Oct-15 04:00 038 0 gusting 4 22.8
2019-Oct-15 03:45 081 0 gusting 5 22.8
2019-Oct-15 03:30 083 0 gusting 4 22.8
2019-Oct-15 03:15 025 22.8
2019-Oct-15 03:00 067 22.8
2019-Oct-15 02:45 042 1 gusting 5 22.8
2019-Oct-15 02:30 090 0 gusting 6 22.8
2019-Oct-15 02:15 074 0 gusting 3 22.8
2019-Oct-15 02:00 056 22.8
2019-Oct-15 01:46 351 1 gusting 5 22.8
2019-Oct-15 01:32 044 1 gusting 5 22.8
2019-Oct-15 01:16 031 0 gusting 6 23.3
2019-Oct-15 01:03 022 1 gusting 6 23.3
2019-Oct-15 00:47 025 1 gusting 6 23.3
2019-Oct-15 00:31 077 4 gusting 8 23.3
2019-Oct-15 00:16 044 2 gusting 6 23.3
2019-Oct-15 00:02 031 3 gusting 9 23.9
2019-Oct-14 23:46 023 4 gusting 8 23.9
2019-Oct-14 23:31 023 1 gusting 6 23.9
2019-Oct-14 23:16 276 1 gusting 5 23.9
2019-Oct-14 23:02 041 0 gusting 7 23.9
2019-Oct-14 22:46 025 2 gusting 6 24.4
2019-Oct-14 22:32 076 2 gusting 5 24.4
2019-Oct-14 22:16 347 24.4
2019-Oct-14 22:02 001 4 gusting 6 24.4
2019-Oct-14 21:46 013 3 gusting 6 25.0
2019-Oct-14 21:31 050 2 gusting 6 26.1
2019-Oct-14 21:16 032 0 gusting 5 26.7
2019-Oct-14 21:01 015 0 gusting 4 27.2
2019-Oct-14 20:46 288 1 gusting 6 26.1
2019-Oct-14 20:31 010 0 gusting 3 27.2
2019-Oct-14 20:16 314 27.2
2019-Oct-14 20:01 311 0 gusting 3 27.2
2019-Oct-14 19:46 013 1 gusting 6 27.8
2019-Oct-14 19:30 238 0 gusting 4 28.9
2019-Oct-14 19:16 213 4 gusting 7 30.0
2019-Oct-14 19:01 226 0 gusting 5 31.1
2019-Oct-14 18:46 162 1 gusting 5 31.1
2019-Oct-14 18:32 216 0 gusting 5 31.1
2019-Oct-14 18:16 228 0 gusting 4 31.7
2019-Oct-14 18:01 182 30.0
2019-Oct-14 17:47 146 0 gusting 3 28.9
2019-Oct-14 17:30 131 1 gusting 4 29.4
2019-Oct-14 17:15 111 29.4
2019-Oct-14 17:00 120 0 gusting 4 28.3
2019-Oct-14 16:45 129 28.3
2019-Oct-14 16:30 137 27.8
2019-Oct-14 16:15 326 27.2
2019-Oct-14 16:00 025 0 gusting 4 27.2
2019-Oct-14 15:46 131 27.8
2019-Oct-14 15:30 067 0 gusting 6 26.1
2019-Oct-14 15:15 348 1 gusting 5 25.0
2019-Oct-14 15:00 025 0 gusting 5 25.0
2019-Oct-14 14:45 002 25.0
2019-Oct-14 14:30 039 2 gusting 5 25.0
2019-Oct-14 14:15 016 0 gusting 5 25.0
2019-Oct-14 14:00 041 0 gusting 5 25.0
2019-Oct-14 13:45 086 25.0
2019-Oct-14 13:30 320 0 gusting 3 24.4
2019-Oct-14 13:16 038 23.9
2019-Oct-14 13:01 055 0 gusting 3 23.3
2019-Oct-14 12:47 032 22.8
2019-Oct-14 12:31
2019-Oct-14 12:16
2019-Oct-14 12:01
2019-Oct-14 11:47
2019-Oct-14 11:30
2019-Oct-14 11:16
2019-Oct-14 11:00
2019-Oct-14 10:45
2019-Oct-14 10:30
2019-Oct-14 10:15
2019-Oct-14 10:00
2019-Oct-14 09:45
2019-Oct-14 09:32
2019-Oct-14 09:17
2019-Oct-14 09:02 084 22.8
2019-Oct-14 08:46 063 22.2
2019-Oct-14 08:31 153 22.2
2019-Oct-14 08:16 079 0 gusting 5 22.2
2019-Oct-14 08:02 041 2 gusting 6 22.2
2019-Oct-14 07:46 024 1 gusting 6 22.2
2019-Oct-14 07:31 005 22.2
2019-Oct-14 07:16 076 1 gusting 5 22.2
2019-Oct-14 07:01 068 1 gusting 5 21.7
2019-Oct-14 06:47 115 1 gusting 6 22.2
2019-Oct-14 06:31 053 3 gusting 6 22.2
2019-Oct-14 06:15 072 3 gusting 6 22.2
2019-Oct-14 06:01 078 1 gusting 8 22.2
2019-Oct-14 05:46 051 3 gusting 8 22.8
2019-Oct-14 05:31 066 3 gusting 8 22.8
2019-Oct-14 05:16 003 2 gusting 6 22.8
2019-Oct-14 05:00 073 2 gusting 6 22.8
2019-Oct-14 04:45 037 0 gusting 7 22.8
2019-Oct-14 04:30 061 3 gusting 9 22.8
2019-Oct-14 04:15 075 4 gusting 7 22.8
2019-Oct-14 04:00 069 2 gusting 7 22.8
2019-Oct-14 03:45 015 4 gusting 9 22.8
2019-Oct-14 03:30 034 3 gusting 8 22.8
2019-Oct-14 03:15 033 3 gusting 8 23.3
2019-Oct-14 03:01 021 5 gusting 9 23.3
2019-Oct-14 02:46 077 4 gusting 10 23.3
2019-Oct-14 02:30 058 5 gusting 8 23.3
2019-Oct-14 02:15 001 4 gusting 8 23.3
2019-Oct-14 02:00 027 4 gusting 10 23.3
2019-Oct-14 01:45 077 3 gusting 9 23.9
2019-Oct-14 01:30 039 3 gusting 9 23.9
2019-Oct-14 01:16 033 4 gusting 9 24.4
2019-Oct-14 01:00 041 4 gusting 10 24.4
2019-Oct-14 00:45 031 5 gusting 8 25.0
2019-Oct-14 00:30 006 3 gusting 6 25.6
2019-Oct-14 00:15 354 2 gusting 6 25.6
2019-Oct-14 00:00 030 26.1
2019-Oct-13 23:45 063 26.1
2019-Oct-13 23:30 056 26.1
2019-Oct-13 23:15 057 26.1
2019-Oct-13 23:00 058 26.1
2019-Oct-13 22:45 055 26.7
2019-Oct-13 22:30 028 0 gusting 3 26.7
2019-Oct-13 22:15 001 26.7
2019-Oct-13 22:00 354 0 gusting 2 27.2
2019-Oct-13 21:45 323 0 gusting 2 27.8
2019-Oct-13 21:30 051 27.8
2019-Oct-13 21:15 079 1 gusting 4 27.2
2019-Oct-13 21:00 316 0 gusting 4 27.2
2019-Oct-13 20:45 311 0 gusting 5 27.2
2019-Oct-13 20:30 336 3 gusting 6 26.7
2019-Oct-13 20:15 008 1 gusting 6 26.7
2019-Oct-13 20:00 323 2 gusting 6 27.2
2019-Oct-13 19:45 237 0 gusting 2 28.3
2019-Oct-13 19:30 212 28.9
2019-Oct-13 19:15 233 0 gusting 2 30.0
2019-Oct-13 19:00 227 31.7
2019-Oct-13 18:45 230 30.0
2019-Oct-13 18:31 164 29.4
2019-Oct-13 18:17 160 29.4
2019-Oct-13 18:03 281 29.4
2019-Oct-13 17:47 356 28.9
2019-Oct-13 17:32 122 27.8
2019-Oct-13 17:16 031 26.7
2019-Oct-13 17:01 048 0 gusting 3 26.1
2019-Oct-13 16:46 309 0 gusting 4 26.1
2019-Oct-13 16:31 355 2 gusting 4 25.0
2019-Oct-13 16:17 322 1 gusting 4 25.0
2019-Oct-13 16:02 041 1 gusting 4 24.4
2019-Oct-13 15:45 023 0 gusting 2 23.9
2019-Oct-13 15:31 032 0 gusting 4 23.3
2019-Oct-13 15:16 022 2 gusting 5 22.2
2019-Oct-13 15:01 029 2 gusting 6 21.7
2019-Oct-13 14:45 335 3 gusting 5 21.7
2019-Oct-13 14:30 010 2 gusting 6 21.1
2019-Oct-13 14:15 001 3 gusting 6 20.0
2019-Oct-13 14:00 032 4 gusting 6 20.0
2019-Oct-13 13:45 302 2 gusting 7 18.9
2019-Oct-13 13:30 022 3 gusting 7 18.9
2019-Oct-13 13:15 013 4 gusting 7 18.3
2019-Oct-13 13:00 342 4 gusting 8 18.3
2019-Oct-13 12:32 345 5 gusting 9 17.2
2019-Oct-13 12:16
2019-Oct-13 12:01
2019-Oct-13 11:46
2019-Oct-13 11:31
2019-Oct-13 11:17
2019-Oct-13 11:00
2019-Oct-13 10:45
2019-Oct-13 10:30
2019-Oct-13 10:15
2019-Oct-13 10:00
2019-Oct-13 09:45
2019-Oct-13 09:30
2019-Oct-13 09:15
2019-Oct-13 09:01 023 1 gusting 5 17.8
2019-Oct-13 08:46 342 2 gusting 5 17.8
2019-Oct-13 08:32 008 2 gusting 6 17.8
2019-Oct-13 08:16 040 2 gusting 5 18.3
2019-Oct-13 08:02 047 2 gusting 5 18.3
2019-Oct-13 07:46 036 0 gusting 4 18.9
2019-Oct-13 07:31 021 18.3
2019-Oct-13 07:16 087 0 gusting 4 18.3
2019-Oct-13 07:02 036 1 gusting 6 18.3
2019-Oct-13 06:46 028 2 gusting 6 18.3
2019-Oct-13 06:31 033 1 gusting 5 18.3
2019-Oct-13 06:16 032 3 gusting 6 18.3
2019-Oct-13 06:01 090 3 gusting 6 18.3